When you browse on this site, cookies collect data to enhance your experience and personalize the content and advertising you see.
Visit our Privacy Policy to learn more. By continuing to use the site, you agree to this use of cookies and data.
  • In Schweiz
  • Länderverzeichnis
  • Für 7 Tage
  • Wassertemperatur
  • Satellitenkarten
  • Wetterkarte
  • Widgets
  • user-avatar
    Anmelden

    Stündliche Wetter Eisenstadt

    Heute, 22 März, Freitag

    Zeit Temperatur Niederschläge Wind Luftdruck Luftfeuchtigkeit
    00:00 +5°C° 0 mm 1 m/S 734 mmHg 59%
    01:00 +5°C° 0 mm 1 m/S 734 mmHg 56%
    02:00 +5°C° 0 mm 1 m/S 733 mmHg 56%
    03:00 +5°C° 0 mm 1 m/S 733 mmHg 55%
    04:00 +5°C° 0 mm 1 m/S 733 mmHg 54%
    05:00 +5°C° 0 mm 1 m/S 733 mmHg 54%
    06:00 +5°C° 0 mm 1 m/S 733 mmHg 54%
    07:00 +6°C° 0 mm 1 m/S 734 mmHg 52%
    08:00 +8°C° 0 mm 1 m/S 734 mmHg 48%
    09:00 +9°C° 0 mm 0 m/S 734 mmHg 44%
    10:00 +11°C° 0 mm 0 m/S 733 mmHg 41%
    11:00 +13°C° 0 mm 1 m/S 733 mmHg 41%
    12:00 +14°C° 0 mm 1 m/S 733 mmHg 41%
    13:00 +15°C° 0 mm 1 m/S 733 mmHg 41%
    14:00 +15°C° 0 mm 1 m/S 732 mmHg 43%
    15:00 +15°C° 0 mm 1 m/S 732 mmHg 45%
    16:00 +15°C° 0 mm 1 m/S 732 mmHg 47%
    17:00 +13°C° 0 mm 1 m/S 731 mmHg 54%
    18:00 +11°C° 0 mm 1 m/S 731 mmHg 61%
    19:00 +9°C° 0 mm 0 m/S 731 mmHg 67%
    20:00 +8°C° 0 mm 0 m/S 731 mmHg 69%
    21:00 +8°C° 0 mm 0 m/S 731 mmHg 71%
    22:00 +9°C° 0 mm 1 m/S 732 mmHg 72%
    23:00 +8°C° 0 mm 1 m/S 731 mmHg 73%

    Morgen, 23 März, Samstag

    Zeit Temperatur Niederschläge Wind Luftdruck Luftfeuchtigkeit
    00:00 +8°C° 0 mm 1 m/S 731 mmHg 74%
    01:00 +8°C° 0 mm 1 m/S 731 mmHg 75%
    02:00 +7°C° 0 mm 1 m/S 731 mmHg 76%
    03:00 +7°C° 0 mm 1 m/S 731 mmHg 77%
    04:00 +7°C° 0 mm 1 m/S 730 mmHg 77%
    05:00 +6°C° 0 mm 0 m/S 731 mmHg 76%
    06:00 +6°C° 0 mm 0 m/S 731 mmHg 75%
    07:00 +7°C° 0 mm 0 m/S 731 mmHg 74%
    08:00 +10°C° 0 mm 1 m/S 731 mmHg 67%
    09:00 +12°C° 0 mm 1 m/S 731 mmHg 60%
    10:00 +14°C° 0 mm 1 m/S 731 mmHg 53%
    11:00 +15°C° 0 mm 1 m/S 731 mmHg 49%
    12:00 +16°C° 0 mm 1 m/S 730 mmHg 46%
    13:00 +19°C° 0 mm 1 m/S 730 mmHg 43%
    14:00 +18°C° 0 mm 1 m/S 730 mmHg 44%
    15:00 +17°C° 0 mm 2 m/S 729 mmHg 45%
    16:00 +17°C° 0 mm 2 m/S 729 mmHg 45%
    17:00 +15°C° 0 mm 1 m/S 729 mmHg 52%
    18:00 +14°C° 0 mm 1 m/S 729 mmHg 59%
    19:00 +12°C° 0 mm 1 m/S 729 mmHg 65%
    20:00 +11°C° 0 mm 1 m/S 729 mmHg 67%
    21:00 +11°C° 0 mm 1 m/S 729 mmHg 68%
    22:00 +11°C° 0 mm 1 m/S 729 mmHg 70%
    23:00 +10°C° 0 mm 1 m/S 729 mmHg 71%

    übermorgen, 24 März, Sonntag

    Zeit Temperatur Niederschläge Wind Luftdruck Luftfeuchtigkeit
    00:00 +10°C° 0 mm 1 m/S 729 mmHg 72%
    01:00 +10°C° 0 mm 1 m/S 729 mmHg 73%
    02:00 +9°C° 0 mm 1 m/S 729 mmHg 74%
    03:00 +9°C° 0 mm 1 m/S 728 mmHg 74%
    04:00 +9°C° 0 mm 1 m/S 728 mmHg 75%
    05:00 +9°C° 0 mm 1 m/S 728 mmHg 74%
    06:00 +9°C° 0 mm 1 m/S 728 mmHg 73%
    07:00 +10°C° 0 mm 1 m/S 728 mmHg 73%
    08:00 +12°C° 0 mm 1 m/S 728 mmHg 66%
    09:00 +14°C° 0 mm 1 m/S 728 mmHg 60%
    10:00 +16°C° 0 mm 1 m/S 728 mmHg 53%
    11:00 +18°C° 0 mm 1 m/S 728 mmHg 51%
    12:00 +19°C° 0 mm 1 m/S 727 mmHg 49%
    13:00 +19°C° 0 mm 1 m/S 727 mmHg 47%
    14:00 +19°C° 0 mm 1 m/S 727 mmHg 51%
    15:00 +17°C° 0 mm 2 m/S 726 mmHg 54%
    16:00 +16°C° 0 mm 2 m/S 726 mmHg 58%
    17:00 +15°C° 0.1 mm 2 m/S 726 mmHg 64%
    18:00 +14°C° 0.1 mm 2 m/S 726 mmHg 70%
    19:00 +13°C° 0.1 mm 2 m/S 726 mmHg 77%
    20:00 +11°C° 0.2 mm 3 m/S 726 mmHg 79%
    21:00 +11°C° 0.2 mm 3 m/S 726 mmHg 82%
    22:00 +10°C° 0.2 mm 3 m/S 727 mmHg 84%
    23:00 +9°C° 0 mm 3 m/S 727 mmHg 86%

    25 März, Montag

    Zeit Temperatur Niederschläge Wind Luftdruck Luftfeuchtigkeit
    00:00 +9°C° 0 mm 2 m/S 727 mmHg 88%
    01:00 +9°C° 0 mm 2 m/S 727 mmHg 90%
    02:00 +8°C° 0 mm 2 m/S 726 mmHg 89%
    03:00 +8°C° 0 mm 3 m/S 726 mmHg 88%
    04:00 +8°C° 0 mm 3 m/S 726 mmHg 87%
    05:00 +8°C° 0 mm 3 m/S 726 mmHg 85%
    06:00 +7°C° 0 mm 3 m/S 726 mmHg 83%
    07:00 +7°C° 0 mm 3 m/S 726 mmHg 80%
    08:00 +7°C° 0 mm 4 m/S 726 mmHg 73%
    09:00 +8°C° 0 mm 4 m/S 726 mmHg 66%
    10:00 +10°C° 0 mm 4 m/S 727 mmHg 59%
    11:00 +10°C° 0 mm 4 m/S 726 mmHg 57%
    12:00 +11°C° 0 mm 4 m/S 726 mmHg 55%
    13:00 +11°C° 0 mm 4 m/S 725 mmHg 54%
    14:00 +10°C° 0 mm 5 m/S 725 mmHg 51%
    15:00 +10°C° 0 mm 6 m/S 725 mmHg 48%
    16:00 +10°C° 0 mm 6 m/S 724 mmHg 45%
    17:00 +9°C° 0 mm 5 m/S 724 mmHg 49%
    18:00 +7°C° 0 mm 5 m/S 725 mmHg 54%
    19:00 +6°C° 0 mm 4 m/S 725 mmHg 58%
    20:00 +5°C° 0.2 mm 5 m/S 726 mmHg 59%
    21:00 +3°C° 0.2 mm 5 m/S 726 mmHg 61%
    22:00 +2°C° 0.2 mm 6 m/S 727 mmHg 63%
    23:00 +2°C° 0 mm 5 m/S 727 mmHg 64%

    26 März, Dienstag

    Zeit Temperatur Niederschläge Wind Luftdruck Luftfeuchtigkeit
    00:00 +1°C° 0 mm 5 m/S 727 mmHg 65%
    01:00 0°C° 0 mm 5 m/S 728 mmHg 67%
    02:00 -1°C° 0 mm 6 m/S 728 mmHg 67%
    03:00 -1°C° 0 mm 6 m/S 728 mmHg 68%
    04:00 -1°C° 0 mm 7 m/S 728 mmHg 68%
    05:00 -1°C° 0 mm 7 m/S 729 mmHg 66%
    06:00 -1°C° 0 mm 8 m/S 729 mmHg 65%
    07:00 -2°C° 0 mm 8 m/S 730 mmHg 63%
    08:00 -1°C° 0 mm 8 m/S 730 mmHg 59%
    09:00 0°C° 0 mm 8 m/S 731 mmHg 56%
    10:00 +1°C° 0 mm 9 m/S 732 mmHg 53%
    11:00 +2°C° 0 mm 9 m/S 732 mmHg 51%
    12:00 +2°C° 0 mm 9 m/S 732 mmHg 50%
    13:00 +3°C° 0 mm 9 m/S 732 mmHg 49%
    14:00 +3°C° 0 mm 9 m/S 731 mmHg 49%
    15:00 +4°C° 0 mm 8 m/S 731 mmHg 49%
    16:00 +4°C° 0 mm 8 m/S 731 mmHg 49%
    17:00 +3°C° 0 mm 6 m/S 732 mmHg 52%
    18:00 +2°C° 0 mm 5 m/S 732 mmHg 56%
    19:00 +1°C° 0 mm 4 m/S 733 mmHg 59%
    20:00 0°C° 0 mm 4 m/S 733 mmHg 60%
    21:00 +1°C° 0 mm 3 m/S 734 mmHg 60%
    22:00 +1°C° 0 mm 3 m/S 734 mmHg 61%
    23:00 0°C° 0 mm 3 m/S 734 mmHg 62%

    27 März, Mittwoch

    Zeit Temperatur Niederschläge Wind Luftdruck Luftfeuchtigkeit
    00:00 0°C° 0 mm 3 m/S 734 mmHg 63%
    01:00 -1°C° 0 mm 2 m/S 734 mmHg 64%
    02:00 -1°C° 0 mm 2 m/S 734 mmHg 63%
    03:00 -1°C° 0 mm 2 m/S 733 mmHg 62%
    04:00 -1°C° 0 mm 2 m/S 733 mmHg 61%
    05:00 +1°C° 0 mm 2 m/S 733 mmHg 58%
    06:00 +1°C° 0 mm 2 m/S 734 mmHg 54%
    07:00 +2°C° 0 mm 2 m/S 734 mmHg 51%
    08:00 +4°C° 0 mm 2 m/S 734 mmHg 43%
    09:00 +6°C° 0 mm 2 m/S 734 mmHg 35%
    10:00 +8°C° 0 mm 2 m/S 734 mmHg 27%
    11:00 +9°C° 0 mm 3 m/S 733 mmHg 27%
    12:00 +10°C° 0 mm 3 m/S 733 mmHg 26%
    13:00 +11°C° 0 mm 3 m/S 733 mmHg 26%
    14:00 +11°C° 0 mm 3 m/S 732 mmHg 28%
    15:00 +11°C° 0 mm 4 m/S 732 mmHg 31%
    16:00 +11°C° 0 mm 4 m/S 732 mmHg 33%
    17:00 +9°C° 0 mm 3 m/S 732 mmHg 39%
    18:00 +8°C° 0 mm 3 m/S 732 mmHg 45%
    19:00 +6°C° 0 mm 2 m/S 732 mmHg 52%
    20:00 +6°C° 0 mm 2 m/S 733 mmHg 54%
    21:00 +6°C° 0 mm 2 m/S 733 mmHg 56%
    22:00 +6°C° 0 mm 2 m/S 733 mmHg 58%
    23:00 +6°C° 0 mm 2 m/S 733 mmHg 60%
    Mehr zeigen